Weather History for Karlovy Vary, Czech Republic

Change the Weather History Date:

Friday, June 14, 2013

  Actual Average (EDQM) Record (EDQM)
Temperature  
Mean Temperature 57 °F -  
Max Temperature 64 °F 67 °F 82 °F (2006)
Min Temperature 50 °F 50 °F 35 °F (1998)
Degree Days  
Heating Degree Days 8    
Growing Degree Days 7 (Base 50)    
Moisture  
Dew Point 47 °F    
Average Humidity 69    
Maximum Humidity 94    
Minimum Humidity 45    
Precipitation  
Precipitation 0.00 in - - ()
Sea Level Pressure  
Sea Level Pressure 30.10 in    
Wind  
Wind Speed 7 mph ()    
Max Wind Speed 17 mph    
Max Gust Speed -    
Visibility 6.1 miles    
Events Rain    
Averages and records for this station are not official NWS values.
T = Trace of Precipitation, MM = Missing Value Source: Averaged Metar Reports

Daily Weather History Graph

Daily Weather History Graph

Search for Another Location

Airport:

Trip Planner

Search our weather history database for the weather conditions in past years. The results will help you decide how hot, cold, wet, or windy it might be!

Date:

Astronomy

Jun. 14, 2013 Rise Set
Actual Time 4:57 AM CEST 9:19 PM CEST
Civil Twilight 4:12 AM CEST 10:04 PM CEST
Nautical Twilight 3:06 AM CEST 11:10 PM CEST
Astronomical Twilight 1:41 AM CEST 12:36 AM CEST
Moon 10:45 AM CEST (6/14) No Moon Set
Length of Visible Light 17h 51m
Length of Day
16h 22m
Waxing Crescent, 28% of the Moon is Illuminated
Jun 14
Waxing Crescent
Jun 16
First Quarter
Jun 23
Full
Jun 30
Last Quarter
Jul 8
New

Hourly Weather History & Observations

Time (CEST) Temp. Dew Point Humidity Pressure Visibility Wind Dir Wind Speed Gust Speed Precip Events Conditions
12:00 AM 57.2 °F 51.8 °F 82% 29.98 in - Variable 2.3 mph - N/A   Clear
1:00 AM 59.0 °F 51.8 °F 77% 29.98 in - ESE 4.6 mph - N/A   Clear
2:00 AM 64.4 °F 51.8 °F 64% 30.01 in - WSW 9.2 mph - N/A   Clear
3:00 AM 60.8 °F 53.6 °F 77% 30.06 in 6.2 mi WNW 17.3 mph - N/A Rain Light Rain
4:00 AM 57.2 °F 53.6 °F 88% 30.04 in 6.2 mi WNW 8.1 mph - N/A   Scattered Clouds
4:34 AM 57.2 °F 51.8 °F 82% 30.06 in 6.2 mi WSW 5.8 mph - N/A Rain Light Rain
5:00 AM 55.4 °F 53.6 °F 94% 30.06 in 6.2 mi WSW 5.8 mph - N/A Rain Light Rain
6:00 AM 53.6 °F 51.8 °F 94% 30.06 in 3.7 mi West 11.5 mph - N/A Rain Rain
6:34 AM 53.6 °F 51.8 °F 94% 30.09 in 6.2 mi West 9.2 mph - N/A   Mostly Cloudy
7:00 AM 53.6 °F 51.8 °F 94% 30.12 in 6.2 mi WSW 9.2 mph - N/A   Mostly Cloudy
7:15 AM 51.8 °F 50.0 °F 94% 30.12 in 6.2 mi WSW 10.4 mph - N/A Rain Light Rain
8:00 AM 50.0 °F 46.4 °F 87% 30.15 in 6.2 mi West 10.4 mph - N/A   Mostly Cloudy
8:30 AM 51.8 °F 48.2 °F 88% 30.15 in 6.2 mi WSW 9.2 mph - N/A   Mostly Cloudy
9:00 AM 51.8 °F 46.4 °F 82% 30.15 in 6.2 mi West 10.4 mph - N/A   Mostly Cloudy
9:30 AM 51.8 °F 46.4 °F 82% 30.15 in 6.2 mi West 10.4 mph - N/A   Mostly Cloudy
10:00 AM 53.6 °F 44.6 °F 72% 30.15 in 6.2 mi West 11.5 mph - N/A   Mostly Cloudy
10:30 AM 55.4 °F 46.4 °F 72% 30.15 in 6.2 mi WSW 8.1 mph - N/A   Mostly Cloudy
11:00 AM 55.4 °F 44.6 °F 67% 30.15 in 6.2 mi West 9.2 mph - N/A   Scattered Clouds
11:30 AM 57.2 °F 44.6 °F 63% 30.15 in 6.2 mi WSW 8.1 mph - N/A   Scattered Clouds
12:00 PM 59.0 °F 44.6 °F 59% 30.15 in 6.2 mi West 9.2 mph - N/A   Scattered Clouds
12:30 PM 59.0 °F 44.6 °F 59% 30.15 in 6.2 mi West 9.2 mph - N/A   Scattered Clouds
1:00 PM 60.8 °F 44.6 °F 55% 30.15 in 6.2 mi Variable 6.9 mph - N/A   Scattered Clouds
1:30 PM 60.8 °F 44.6 °F 55% 30.15 in 6.2 mi West 5.8 mph - N/A   Scattered Clouds
2:00 PM 60.8 °F 42.8 °F 52% 30.12 in 6.2 mi WNW 8.1 mph - N/A   Scattered Clouds
2:30 PM 60.8 °F 44.6 °F 55% 30.12 in 6.2 mi West 5.8 mph - N/A   Scattered Clouds
3:00 PM 62.6 °F 44.6 °F 52% 30.12 in 6.2 mi West 5.8 mph - N/A   Partly Cloudy
3:30 PM 62.6 °F 42.8 °F 48% 30.12 in 6.2 mi Variable 5.8 mph - N/A   Partly Cloudy
4:00 PM 62.6 °F 44.6 °F 52% 30.12 in 6.2 mi West 5.8 mph - N/A   Partly Cloudy
4:30 PM 64.4 °F 44.6 °F 49% 30.12 in 6.2 mi Variable 2.3 mph - N/A   Partly Cloudy
5:00 PM 62.6 °F 44.6 °F 52% 30.12 in 6.2 mi Variable 3.5 mph - N/A   Partly Cloudy
5:30 PM 64.4 °F 44.6 °F 49% 30.12 in 6.2 mi Variable 3.5 mph - N/A   Partly Cloudy
6:00 PM 64.4 °F 44.6 °F 49% 30.09 in 6.2 mi WNW 4.6 mph - N/A   Partly Cloudy
6:30 PM 64.4 °F 42.8 °F 45% 30.09 in 6.2 mi Variable 2.3 mph - N/A   Partly Cloudy
7:00 PM 62.6 °F 46.4 °F 55% 30.09 in 6.2 mi North 3.5 mph - N/A   Partly Cloudy
7:30 PM 62.6 °F 44.6 °F 52% 30.09 in - NW 4.6 mph - N/A   Clear
8:00 PM 60.8 °F 48.2 °F 63% 30.09 in 6.2 mi Variable 2.3 mph - N/A   Partly Cloudy
8:30 PM 59.0 °F 48.2 °F 67% 30.06 in - ENE 5.8 mph - N/A   Clear
9:00 PM 55.4 °F 48.2 °F 77% 30.09 in - ESE 3.5 mph - N/A   Clear
10:00 PM 53.6 °F 46.4 °F 77% 30.09 in - Variable 1.2 mph - N/A   Clear
11:00 PM 53.6 °F 44.6 °F 72% 30.09 in - ESE 5.8 mph - N/A   Clear